Location: Newark
(12.4436°N, 0.6167°W)
Time: 23:44:33
(UTC+00:00)

Vanguard 1 - Pass Details

Date: 15 December 2019
Orbit: 651 x 3832 km, 34.2° (Epoch: 22 January)

Event Time Altitude Azimuth Distance (km) Brightness Sun altitude
Rises 23:45:24 0° 222° (SW) 5,352 14.0 -78.8°
Enters shadow 23:45:28 - 222° (SW) 5,334 14.0 -78.8°
Reaches altitude 10° 23:48:20 10° 219° (SW) 4,690 - -79.0°
Maximum altitude 00:02:53 66° 139° (SE) 3,344 - -79.1°
Exits shadow 00:22:31 16° 63° (ENE) 6,349 14.0 -77.6°
Drops below altitude 10° 00:25:41 10° 62° (ENE) 6,936 14.3 -77.3°
Sets 00:31:10 0° 60° (ENE) 7,934 14.7 -76.5°
